Location: Unspecified
(0.0000°N, 0.0000°E)
Time: 12:55:40
(UTC+00:00)

PAYLOAD H - Visible Passes

Search period start: 18 May 2026 00:00
Search period end: 28 May 2026 00:00
Orbit: 807 x 818 km, 98.7° (Epoch: 17 May)

Date Brightness Start Highest point End Pass type
(mag) Time Alt. Az. Time Alt. Az. Time Alt. Az.
18 May ? 05:07:54 10° NE 05:11:49 21° ESE 05:15:44 10° SSE visible
19 May ? 04:47:48 10° E 04:48:53 11° ESE 04:49:59 10° ESE visible
19 May ? 19:03:38 10° SW 19:06:51 16° WSW 19:10:04 10° WNW visible
20 May ? 18:39:18 10° SSW 18:43:55 30° WSW 18:48:32 10° NW visible
21 May ? 18:15:45 10° S 18:20:58 58° WSW 18:26:11 10° NNW visible
22 May ? 05:15:18 10° NE 05:19:39 26° ESE 05:23:59 10° SSE visible
23 May ? 04:54:09 10° ENE 04:56:42 14° ESE 04:59:15 10° SE visible
23 May ? 19:12:20 10° SW 19:14:40 13° WSW 19:17:00 10° WNW visible
24 May ? 18:47:29 10° SSW 18:51:44 25° WSW 18:56:01 10° NW visible
25 May ? 18:23:43 10° S 18:28:48 46° WSW 18:33:52 10° NNW visible
26 May ? 05:22:48 10° NE 05:27:28 32° ESE 05:32:07 10° SSE visible
27 May ? 05:01:10 10° ENE 05:04:31 17° ESE 05:07:52 10° SE visible
